Theta_e
321 321 322 322 321 320 320 319 319 319 318 318 318 317 314 310 306 303 302 302 302 303 304 305 305 302 298 295 295 294 293 292 291 289 288 288 288 289 289 289 288 287 287 287 287 287 287 288 287 287 287 287 286 286 286 286 285 285 285 285 285 284 284 284 283 283 283 282 282 282 282 282 282 282
321 321 322 321 321 321 320 319 319 319 319 318 318 317 314 308 305 306 305 304 304 304 306 306 306 303 298 296 295 294 293 292 291 289 289 288 289 289 289 289 288 287 287 287 287 287 287 287 287 286 286 286 286 285 285 285 285 285 285 285 284 284 283 283 283 283 283 282 282 282 282 282 281 282
321 321 322 322 321 321 320 319 319 319 319 318 317 317 312 305 303 305 306 305 305 305 307 307 305 301 297 295 295 294 293 292 291 290 289 289 289 289 289 289 288 288 288 288 288 288 288 287 286 285 285 285 285 285 285 284 284 285 285 284 284 284 283 283 283 283 282 282 282 282 282 282 281 281
321 321 321 321 321 321 320 319 318 318 318 316 316 315 309 303 302 305 306 306 306 305 306 305 302 299 296 294 294 293 293 292 291 290 289 290 290 290 289 289 288 288 288 288 288 288 288 287 286 285 285 285 285 285 284 284 284 284 284 284 284 283 283 283 282 282 282 282 282 282 281 281 281 280
321 321 321 321 321 320 319 318 317 317 316 315 313 310 305 302 304 306 306 306 305 305 305 302 298 296 295 293 292 292 292 291 291 290 289 290 290 289 289 289 288 287 288 288 288 288 287 286 286 286 286 286 285 285 285 284 284 284 284 284 284 283 283 282 282 282 282 282 282 281 281 280 280 280
321 321 320 320 320 319 318 317 316 315 314 314 311 308 305 305 306 306 305 305 305 306 304 301 297 295 293 292 292 292 292 291 290 289 290 290 290 290 289 289 288 288 288 288 288 288 287 286 286 287 286 286 285 285 285 285 284 284 284 284 283 283 282 282 282 282 282 282 281 281 281 280 280 280
321 320 320 319 319 318 316 315 314 314 313 312 311 309 307 306 306 305 304 304 305 306 304 300 297 296 294 292 292 292 292 291 290 289 289 289 289 290 289 288 288 288 289 289 288 287 287 287 287 287 287 286 286 285 285 284 284 284 284 283 283 283 282 282 282 281 281 281 281 280 280 280 280 280
320 319 319 318 318 318 316 314 313 312 312 311 311 309 307 306 305 304 304 304 305 306 304 299 296 295 294 293 292 292 291 290 290 289 289 289 289 289 289 288 289 289 289 289 288 287 287 287 287 287 287 286 286 285 285 285 284 284 283 283 283 282 282 281 281 281 281 281 280 280 280 280 280 280
320 319 318 317 317 317 316 314 313 312 312 312 311 309 307 307 305 303 303 304 305 305 302 298 296 294 293 293 293 292 291 290 290 290 290 289 290 289 289 289 289 289 289 288 288 288 287 287 287 287 287 287 286 285 285 285 284 284 283 283 282 282 281 281 281 281 280 280 280 280 280 280 280 280
319 318 317 317 318 317 316 314 313 312 311 311 311 310 308 306 304 303 303 303 304 304 300 296 295 293 292 293 292 292 292 291 291 291 291 290 290 289 289 289 289 289 289 288 288 288 287 287 288 287 287 287 286 285 285 285 284 283 283 283 282 281 281 281 280 280 280 280 280 280 280 280 280 280
318 318 318 318 317 317 316 314 313 312 311 310 310 310 309 306 303 303 303 303 304 303 298 295 294 292 292 292 292 292 292 291 290 291 291 291 290 290 289 289 289 289 289 288 288 287 287 288 288 288 288 287 286 286 285 284 284 283 283 283 282 281 281 280 280 280 280 280 280 280 279 279 280 280
318 318 317 316 316 316 315 314 313 312 311 310 309 308 308 306 303 303 303 303 304 302 297 294 293 291 292 292 292 292 292 292 292 291 291 291 290 290 289 289 289 288 288 288 288 287 287 288 288 288 287 287 287 286 285 284 284 283 283 282 282 281 281 280 280 280 280 280 280 279 279 279 279 279
318 318 316 314 315 315 315 314 312 311 311 310 309 308 308 305 304 304 303 302 304 302 298 294 292 291 292 292 292 293 293 293 293 292 292 291 290 289 288 288 288 288 288 288 288 288 288 288 288 288 287 287 286 286 285 284 283 283 283 282 281 281 280 280 280 280 280 280 280 279 279 279 279 279
318 317 315 314 314 315 315 313 310 310 310 309 309 309 308 306 305 304 303 302 303 303 299 295 292 292 292 292 293 293 293 293 292 292 292 291 290 289 289 289 289 289 289 288 288 288 288 288 288 288 287 287 286 286 285 284 283 282 282 282 281 280 280 280 280 280 280 280 279 279 279 279 279 279
318 317 315 314 313 313 314 312 309 308 308 307 307 307 307 307 306 304 303 302 303 303 300 295 292 293 293 293 293 293 292 292 292 292 291 291 290 290 291 291 291 290 289 288 288 288 288 288 288 288 287 287 286 286 285 283 282 282 282 281 281 280 280 280 280 280 280 279 279 279 279 279 279 279
317 316 315 315 313 313 314 313 308 307 307 306 306 306 306 305 304 303 302 303 304 304 300 295 293 293 294 293 293 293 292 292 292 291 291 291 291 291 291 291 290 289 288 288 288 288 288 288 288 287 287 287 286 285 284 283 282 282 282 281 280 280 280 280 280 280 280 279 279 278 278 279 279 278
316 315 314 314 314 313 314 313 308 306 305 305 305 305 305 304 302 302 301 302 304 303 299 295 294 294 293 293 293 293 292 292 292 292 291 291 292 291 291 290 289 288 288 288 288 288 288 288 288 287 286 286 286 285 284 283 282 282 282 281 281 281 281 281 280 280 279 279 279 279 278 278 278 278
315 315 314 313 313 313 313 313 310 306 305 305 304 304 304 303 301 301 302 303 302 299 295 293 293 293 293 293 293 292 292 292 292 292 292 292 292 291 291 290 288 288 288 288 288 288 288 288 288 287 286 286 285 284 284 283 282 282 281 281 281 281 281 281 280 280 280 279 279 279 278 278 278 278
309 312 313 313 313 313 312 312 312 308 305 305 304 304 303 302 301 302 302 302 298 294 292 291 292 292 292 292 292 291 291 291 291 291 291 291 291 290 290 289 289 288 288 288 288 288 288 288 288 287 287 286 285 284 284 283 282 282 282 282 282 282 281 281 280 280 280 279 279 279 278 278 278 278
305 307 310 312 312 312 312 312 312 309 306 304 304 303 302 301 302 302 301 297 293 291 291 291 290 290 290 290 290 290 290 290 290 290 290 289 289 289 289 289 289 289 288 288 288 288 288 288 288 287 287 286 285 285 284 282 281 282 282 283 283 282 281 280 280 280 280 279 279 279 278 278 278 278
303 305 307 308 309 309 309 309 310 309 306 304 303 302 301 301 302 300 296 292 290 290 290 289 289 289 289 289 290 290 290 290 290 290 291 291 291 291 291 290 290 289 288 288 288 288 288 288 288 287 286 285 285 285 283 282 282 282 283 284 284 282 281 279 279 280 280 280 279 279 278 278 278 278
303 304 304 305 305 304 304 305 307 308 306 303 303 302 302 302 301 298 293 291 290 289 289 288 288 288 289 289 290 290 290 290 290 291 291 291 292 292 291 291 290 289 288 288 287 288 288 288 288 287 286 286 286 284 283 282 282 283 284 285 284 282 280 279 279 279 280 280 279 278 278 278 278 278
301 302 302 302 302 301 301 302 304 305 304 303 303 302 302 302 300 297 294 293 291 290 289 289 289 289 289 289 290 290 290 290 290 290 290 290 291 290 290 290 289 288 289 288 288 288 288 288 287 286 286 287 286 284 283 283 284 284 285 285 284 281 279 279 279 279 279 280 279 278 278 278 278 278
299 301 302 302 301 300 300 301 302 302 302 302 302 302 303 303 300 297 295 293 292 291 290 290 290 290 290 290 290 290 290 290 290 289 289 290 290 290 289 289 288 288 289 288 287 287 287 287 286 286 286 286 285 284 284 285 284 285 285 285 283 281 279 278 278 278 279 279 279 278 278 278 278 278
300 301 302 302 300 300 300 300 300 301 301 301 302 303 303 301 298 297 295 293 291 290 290 290 290 290 290 290 290 290 291 290 290 290 290 289 289 289 288 288 288 287 287 287 286 286 286 286 286 286 286 286 285 284 285 285 285 285 286 284 282 280 279 278 277 277 278 278 278 278 278 277 277 277
300 301 301 301 300 300 299 299 299 300 300 301 302 301 298 295 294 294 293 292 291 290 290 290 290 290 290 290 290 290 291 290 290 290 289 289 289 288 288 287 287 286 286 285 285 285 285 285 285 286 286 286 285 285 286 286 286 286 285 284 282 280 278 277 277 277 277 278 278 278 277 277 277 277
300 300 300 300 300 299 299 298 299 299 300 301 300 297 293 291 291 291 290 290 290 290 290 290 290 290 290 290 290 290 290 290 289 289 289 289 288 287 287 287 286 286 285 285 285 285 285 285 285 285 286 285 285 286 287 286 286 286 284 283 281 280 279 277 276 276 277 277 277 277 277 276 276 276
300 300 300 300 300 299 299 298 299 299 299 298 295 292 290 289 290 289 289 289 289 289 290 290 290 290 290 290 290 290 290 289 289 289 289 288 287 287 286 286 286 286 285 285 285 285 285 285 284 285 285 285 285 286 287 286 286 285 283 282 281 280 278 277 276 276 276 277 277 277 277 276 276 276
298 299 300 299 299 299 299 299 298 297 296 293 291 289 288 289 288 288 289 289 289 289 290 290 290 290 290 290 290 289 289 289 289 289 288 288 287 287 286 286 286 285 285 284 284 284 284 284 284 284 284 285 285 286 286 286 286 284 283 281 280 280 278 277 277 276 276 277 277 277 276 276 276 275
297 298 298 298 299 299 299 299 298 297 294 290 288 287 288 288 288 288 289 289 289 290 290 290 290 290 290 289 288 288 288 289 289 288 288 287 287 286 286 286 286 285 285 284 284 284 284 284 283 283 284 284 285 285 286 286 286 285 283 281 280 279 279 278 277 276 276 276 277 277 276 276 276 275
296 297 297 298 298 299 299 299 298 296 293 289 287 287 287 288 288 288 289 289 290 290 291 291 290 290 289 288 288 289 289 289 288 288 287 287 286 286 285 285 285 285 284 284 283 283 283 283 283 283 283 284 284 285 285 285 285 285 283 281 280 279 279 278 277 276 275 276 276 277 276 276 276 275
296 296 297 297 297 298 299 298 296 294 292 291 289 289 288 288 287 287 287 288 288 289 289 289 289 289 289 289 289 289 289 288 288 287 287 286 286 285 285 285 285 285 284 284 283 283 283 283 282 282 282 283 283 284 284 285 285 284 283 282 280 279 278 278 277 276 275 275 276 276 276 276 275 275
295 295 296 297 297 297 298 297 295 295 295 293 291 290 289 288 287 287 287 287 288 288 288 288 288 289 289 289 289 289 288 288 287 287 286 286 285 285 284 284 285 285 284 284 283 283 283 282 282 282 282 282 283 283 284 284 284 284 283 282 281 280 279 278 277 276 275 275 276 276 276 275 275 275
295 296 297 297 297 297 298 297 296 296 297 295 292 289 288 288 288 288 287 288 288 288 288 288 288 288 289 289 289 289 288 288 287 286 286 285 285 285 284 284 285 285 284 283 283 282 282 281 281 281 281 282 282 282 283 283 284 284 283 282 282 281 280 278 278 277 276 275 275 276 276 275 275 274
295 297 297 296 297 297 298 298 297 297 297 297 294 290 289 288 287 287 288 288 288 288 288 288 288 289 289 289 289 288 288 288 287 286 286 285 285 284 284 284 284 284 284 283 283 282 281 281 281 281 281 282 282 282 282 283 283 283 283 282 282 281 280 279 279 278 276 275 275 275 275 275 274 274
296 298 297 296 297 297 298 299 299 298 299 299 297 294 292 291 289 289 288 288 288 288 288 289 289 289 289 289 288 288 288 287 287 286 286 286 285 284 284 284 284 284 284 283 282 281 281 280 280 280 281 281 281 281 281 282 282 283 283 282 282 281 280 280 279 278 277 276 275 275 275 275 274 274
297 298 298 297 297 298 298 300 300 300 301 302 301 300 298 296 294 291 289 288 287 288 288 288 289 289 289 289 288 288 288 287 287 286 285 285 285 285 284 284 285 285 284 283 282 281 280 280 280 280 281 281 280 280 281 281 281 282 283 282 282 281 280 280 279 278 277 277 276 275 275 275 274 274
298 299 299 298 297 297 298 300 300 301 302 302 302 301 301 299 297 293 290 288 288 288 288 288 288 289 289 289 289 289 288 288 287 286 285 285 286 286 286 285 285 285 284 283 282 281 280 280 281 281 281 281 281 280 280 280 281 282 282 282 281 281 280 280 280 278 277 277 277 276 275 275 274 274
298 299 299 298 298 298 298 299 299 299 300 300 300 301 302 302 300 296 293 290 289 289 289 289 289 290 290 291 291 290 289 290 290 289 288 289 289 288 286 285 285 284 283 283 282 281 281 282 283 283 282 282 281 280 279 279 280 281 281 281 281 281 280 280 279 278 277 276 277 277 276 275 274 274
295 297 297 297 297 297 297 298 297 297 298 299 300 302 303 303 302 300 297 295 293 291 291 291 291 292 293 293 293 292 292 293 293 291 289 290 290 289 287 286 285 284 283 283 283 282 283 285 285 284 282 281 280 279 278 278 279 280 281 281 281 281 280 280 279 278 277 276 277 277 276 275 274 274
292 292 292 293 295 296 297 297 297 297 298 299 301 301 302 302 302 302 301 300 298 296 294 294 294 295 295 296 297 296 295 296 295 291 289 289 290 289 288 287 286 285 284 283 284 285 286 287 285 283 281 280 279 278 277 277 278 279 280 280 280 280 280 280 279 278 277 277 277 277 276 275 275 274
293 292 291 292 294 296 297 297 296 296 297 298 299 300 300 301 301 301 301 300 299 298 297 296 296 296 296 297 298 297 296 296 295 293 291 291 291 290 288 287 287 287 286 285 286 287 287 285 283 281 280 279 278 278 277 277 278 279 280 280 280 280 280 279 279 279 278 277 277 277 276 275 275 274
293 294 295 296 297 297 297 296 295 295 296 296 297 298 298 298 299 299 299 298 298 297 297 297 297 297 297 298 298 297 296 296 295 294 293 293 293 292 291 290 289 289 287 286 285 285 285 284 283 281 280 279 278 278 278 277 277 278 279 279 280 279 279 279 279 279 278 278 277 277 276 275 275 274
296 297 298 299 299 298 298 297 296 295 295 295 296 297 297 297 297 298 297 297 296 296 297 297 296 296 296 297 297 296 296 296 295 295 295 294 293 293 292 291 289 288 286 285 284 284 285 284 283 282 280 280 279 279 278 278 277 277 278 279 279 279 279 279 279 279 279 278 277 277 276 275 275 274
297 297 297 297 297 298 299 299 298 297 296 296 297 297 298 298 297 297 296 295 295 295 295 295 295 296 296 296 296 297 297 296 294 294 294 294 292 292 291 290 288 286 285 284 284 284 285 284 283 282 281 280 279 279 278 278 277 277 277 278 279 279 279 278 278 279 279 279 278 277 276 275 274 274
Wind_Speed
44 44 44 44 43 41 42 43 43 43 42 39 35 32 30 29 27 27 27 25 23 22 21 21 21 22 23 23 23 24 23 22 20 19 18 17 17 17 16 15 14 12 12 12 11 9 9 9 10 10 9 7 7 9 10 11 12 13 14 15 16 16 17 17 17 17 17 16 16 17 17 17 17 17
45 45 44 45 45 43 43 43 43 43 42 40 37 34 31 28 27 26 24 22 21 20 20 21 21 21 22 23 23 23 23 22 20 19 18 18 18 18 16 15 13 13 13 12 11 10 10 11 11 10 10 9 9 10 11 12 13 14 15 15 16 16 17 17 17 17 17 16 16 17 18 18 18 17
48 47 46 47 47 45 45 45 44 44 43 41 39 35 31 28 27 26 22 20 20 20 19 20 20 20 21 22 23 23 23 21 20 19 20 20 19 18 16 14 13 14 13 11 10 10 11 12 12 12 11 11 11 12 13 14 14 15 15 15 16 16 16 17 17 16 17 17 17 17 18 19 18 17
50 49 48 48 49 48 48 48 47 46 45 43 39 36 33 31 29 27 24 22 21 20 18 19 20 21 21 21 22 23 22 21 21 21 21 21 19 18 16 14 14 14 12 11 11 12 12 12 12 12 12 12 12 12 13 14 14 15 15 15 16 16 16 16 16 16 17 17 17 17 18 18 18 18
52 51 50 50 50 50 51 50 49 48 46 43 39 36 35 34 31 28 25 24 22 20 20 20 21 22 22 22 23 23 22 22 22 23 23 21 19 18 16 15 14 14 13 12 13 13 12 12 12 12 11 11 12 12 13 14 14 15 15 16 16 16 16 16 16 16 16 17 17 17 17 17 18 18
53 53 52 51 51 52 52 52 50 48 46 43 41 39 38 36 32 28 25 25 23 21 21 22 23 23 23 23 23 23 23 22 22 23 22 21 19 18 16 15 15 14 14 14 14 13 12 12 12 12 11 11 11 12 13 14 14 15 15 16 16 16 16 16 16 16 16 17 17 17 18 18 18 18
54 52 51 49 50 52 52 51 50 47 45 44 42 41 39 35 30 27 25 24 24 22 21 23 23 23 23 23 23 23 23 23 23 23 22 21 20 18 17 16 16 15 15 15 14 13 12 11 12 11 11 11 12 13 13 14 14 15 16 16 15 16 16 15 15 15 16 16 16 17 18 18 19 19
53 49 47 46 47 49 51 51 49 47 45 44 43 42 38 33 29 28 26 25 24 22 21 23 23 22 21 23 23 24 24 25 24 24 23 22 21 19 18 17 17 17 16 15 13 12 11 11 11 11 11 12 12 13 13 14 15 15 16 16 15 16 15 15 15 15 15 16 17 18 18 19 19 19
49 46 45 44 46 48 51 51 50 48 46 45 44 41 37 33 31 29 28 27 25 22 22 23 23 23 22 22 24 25 25 26 26 25 24 23 22 20 19 19 18 17 16 14 12 11 11 11 11 11 12 12 12 13 14 15 15 16 16 15 15 15 14 14 14 14 15 16 17 18 19 19 20 20
47 46 44 43 44 47 49 50 49 48 47 46 44 41 37 34 32 31 30 28 26 23 23 22 23 24 25 24 25 26 26 26 25 24 23 23 23 21 20 19 18 17 15 13 12 12 12 12 11 11 12 13 13 13 14 15 15 16 16 15 15 15 14 14 14 14 16 16 18 19 19 19 20 20
47 46 44 42 41 44 46 48 48 48 47 46 44 42 39 36 34 32 31 29 27 26 25 24 23 24 25 26 25 25 25 26 25 24 23 22 22 21 20 19 17 16 15 14 13 13 12 11 11 12 13 13 13 14 15 15 15 16 16 15 14 14 13 13 14 15 16 17 18 19 19 19 19 19
47 46 46 42 40 39 41 44 46 46 46 46 45 42 40 38 35 33 32 31 29 28 28 27 25 25 26 28 27 26 27 27 26 24 23 22 21 19 18 18 17 16 16 16 15 13 11 11 12 13 14 14 13 14 15 16 16 16 15 14 14 13 13 13 13 15 16 17 18 19 19 19 19 19
46 47 46 42 38 35 36 40 43 44 45 46 45 43 41 39 36 34 34 33 31 30 30 29 28 28 29 29 30 29 28 26 24 23 23 22 21 20 19 19 18 18 18 17 15 13 11 11 12 14 14 14 14 15 16 16 16 15 15 14 13 12 12 12 13 15 16 17 18 19 19 18 19 19
47 47 45 41 38 34 34 38 41 42 43 44 42 41 40 39 37 36 37 35 33 32 32 31 32 32 31 31 30 28 24 22 22 22 21 21 21 21 21 20 19 19 18 16 14 13 12 12 13 14 14 14 15 15 15 15 16 15 15 13 12 11 12 12 14 15 16 17 18 18 18 18 19 19
49 49 45 41 40 36 34 37 40 40 41 41 39 38 37 36 35 37 38 36 33 33 32 32 33 33 32 30 28 26 24 22 21 20 20 21 21 21 21 20 18 17 16 15 14 14 14 13 14 14 14 14 15 16 15 15 16 15 14 13 11 11 12 12 14 15 16 17 18 18 18 18 18 19
51 51 46 41 39 36 33 35 38 38 39 39 38 37 35 33 33 35 36 34 33 33 32 32 33 32 30 28 27 26 25 22 21 21 21 22 21 20 20 18 15 13 14 15 15 14 15 14 14 14 14 15 15 15 15 16 16 15 14 12 11 11 12 13 13 14 15 17 18 18 18 18 18 18
54 53 48 42 38 35 33 34 36 38 38 38 38 37 36 35 35 34 34 32 30 30 30 30 31 30 28 27 25 23 22 22 23 24 23 22 21 20 19 16 13 13 15 15 14 15 15 15 14 15 15 16 16 15 15 16 16 15 13 12 11 12 13 13 13 14 15 17 18 18 18 19 18 18
57 54 50 46 43 41 39 38 38 38 40 40 40 39 38 38 37 36 35 32 30 30 29 27 26 25 25 23 20 19 21 23 23 22 20 19 19 19 17 16 15 17 17 16 16 16 16 14 14 15 16 16 16 15 16 16 15 14 12 12 13 13 14 14 14 14 15 17 18 18 18 18 18 17
57 55 51 49 48 48 47 45 42 40 41 43 43 42 41 40 40 38 36 34 32 31 29 26 23 21 19 18 17 19 21 21 19 18 17 16 17 18 18 18 19 19 19 18 18 17 16 15 15 15 16 16 16 15 16 16 15 13 12 13 14 15 14 14 14 14 15 16 17 18 18 18 18 17
54 53 52 51 51 51 50 48 46 43 43 45 45 44 43 42 41 39 36 34 32 31 30 27 24 20 18 18 20 21 21 22 22 22 22 21 21 20 20 21 20 20 20 19 18 17 16 16 15 16 17 16 16 16 16 15 14 13 13 15 16 16 15 14 14 14 15 16 17 18 18 18 18 17
51 50 49 49 49 49 48 47 46 45 45 46 46 45 44 43 41 40 37 35 33 32 30 28 25 23 22 23 24 24 25 25 26 26 27 26 24 23 22 21 20 19 20 19 18 18 18 17 16 17 17 16 16 17 16 15 14 13 15 17 18 17 16 15 14 14 14 15 16 18 18 18 18 17
48 46 45 44 44 44 44 44 44 45 46 47 47 47 45 44 42 42 40 39 37 35 33 30 28 27 26 26 27 28 28 28 27 28 26 24 23 22 22 20 18 19 20 19 18 19 19 17 17 17 17 16 17 16 15 14 13 14 16 19 20 18 16 15 15 14 14 15 16 17 18 18 17 17
44 42 40 40 40 40 41 43 43 45 47 48 48 47 45 44 44 43 42 41 40 38 36 34 32 31 30 29 29 29 29 28 27 26 24 23 23 22 21 20 20 20 19 18 19 19 18 17 17 17 17 16 16 14 13 12 13 14 17 20 20 18 17 16 15 14 14 14 16 17 17 18 18 17
42 39 37 37 38 38 40 41 43 45 47 48 47 45 44 44 44 43 41 39 38 37 36 35 34 33 32 31 30 30 30 29 28 26 25 25 23 22 21 22 21 20 17 16 17 17 17 17 17 17 16 15 15 13 12 12 13 15 19 21 20 19 17 16 16 15 14 15 16 16 17 17 17 17
40 39 38 38 38 39 39 40 42 44 45 44 43 42 42 42 41 39 37 36 35 35 34 33 32 32 31 31 30 30 30 29 28 26 25 24 23 23 23 22 21 20 19 18 18 18 18 17 17 16 15 16 15 15 14 14 15 17 20 21 20 19 18 17 16 15 15 15 16 16 16 16 16 17
40 39 39 39 39 39 39 39 41 41 40 39 38 38 38 39 37 34 33 33 34 34 33 33 32 32 31 31 31 31 30 29 27 25 23 23 23 24 24 23 21 20 20 20 20 20 20 19 17 16 15 15 15 15 16 17 18 20 21 21 20 20 19 17 16 16 16 16 16 16 16 15 16 16
40 40 39 39 39 39 39 39 39 39 37 36 36 37 37 37 34 33 32 32 33 33 33 33 33 32 32 31 32 32 30 28 26 24 23 24 25 26 25 24 23 22 21 22 23 23 22 21 19 18 16 15 16 17 17 18 20 21 21 21 20 20 19 18 17 16 17 16 16 16 16 16 16 15
37 37 37 38 38 39 38 37 36 35 35 35 36 37 36 34 33 32 33 32 33 33 33 34 33 33 32 32 32 31 28 26 24 24 25 26 27 27 26 24 23 23 23 24 25 25 24 22 20 19 17 16 17 18 18 19 20 21 21 21 20 20 20 19 17 17 16 17 16 16 16 16 16 15
35 35 35 36 36 36 36 34 33 32 32 33 34 34 34 33 33 33 33 34 34 34 34 34 33 33 32 32 30 28 25 25 25 26 28 28 28 27 26 25 24 24 25 26 27 26 25 23 21 20 19 18 17 19 19 20 21 21 21 21 21 21 20 20 19 17 16 16 16 16 16 16 15 14
32 32 32 32 33 33 33 32 32 33 33 32 33 33 33 34 34 35 35 37 37 36 36 35 34 33 32 30 28 26 26 27 29 29 29 29 28 27 26 25 25 26 27 28 28 28 26 24 22 22 20 19 19 20 21 21 21 22 22 21 21 21 20 20 19 17 16 16 16 16 16 16 15 14
32 31 30 29 29 29 30 31 32 33 33 34 34 34 35 35 36 36 37 37 36 35 34 34 32 31 29 28 28 29 30 31 31 30 29 28 27 27 27 27 27 28 29 29 30 29 27 25 24 23 21 20 20 22 22 22 22 22 22 21 22 22 21 20 19 17 16 16 16 16 16 16 16 14
34 31 29 28 28 29 31 33 34 34 35 35 36 36 37 38 38 37 37 36 34 34 33 32 31 30 31 31 31 32 32 32 32 31 29 29 28 28 29 29 30 30 30 31 31 29 27 26 25 24 22 21 22 23 23 23 22 22 22 22 22 23 22 21 20 19 16 15 16 16 16 16 15 14
35 32 30 31 32 34 35 36 37 37 37 37 38 39 40 40 40 40 40 38 37 36 35 34 34 34 34 34 33 33 34 34 33 32 31 30 30 31 32 31 31 31 31 31 30 29 28 27 26 24 22 22 24 24 24 24 23 22 22 22 23 23 23 22 21 19 17 15 16 17 17 16 15 14
35 34 34 35 37 38 39 40 40 40 40 40 42 42 42 42 43 43 42 40 38 38 38 37 37 36 36 36 36 36 37 36 35 33 32 32 32 33 33 33 32 32 32 31 30 29 28 27 26 24 23 24 26 26 26 25 23 22 23 23 23 22 22 23 22 20 17 16 16 16 17 16 14 13
36 37 38 40 40 41 42 42 43 43 42 43 44 44 44 45 46 45 43 41 41 41 40 39 38 38 39 39 39 38 38 37 35 34 34 34 35 35 34 33 33 32 33 33 32 30 28 28 26 25 26 26 28 29 28 26 24 23 24 24 24 22 22 23 23 20 18 17 16 15 16 16 14 13
38 39 41 43 44 45 45 44 43 43 44 44 45 45 46 47 48 47 44 43 43 43 42 41 41 41 41 40 39 38 38 37 37 37 37 37 36 36 35 34 34 34 34 34 32 30 29 28 28 27 28 29 30 31 30 27 25 24 24 24 24 22 22 23 22 20 19 18 17 16 15 15 14 14
41 43 45 47 48 48 48 47 45 46 46 45 45 46 47 49 49 47 45 45 45 44 43 43 42 41 40 40 40 40 40 40 40 40 38 37 36 36 36 36 36 36 36 35 33 32 31 31 30 30 30 31 33 34 32 28 26 24 24 24 23 22 23 23 22 20 19 19 18 17 16 15 15 14
43 46 49 50 51 51 50 49 49 49 48 47 48 49 48 48 47 46 46 46 46 44 43 43 42 41 41 42 43 43 43 43 42 41 40 38 37 38 38 37 37 37 37 35 35 34 33 32 33 33 33 34 36 36 32 28 26 24 22 22 22 22 23 24 22 21 20 19 19 18 16 15 15 14
46 48 51 52 52 52 52 52 51 51 50 50 51 50 48 47 46 45 45 45 45 44 44 45 44 44 45 45 44 44 44 44 43 42 41 40 39 39 38 37 38 39 38 38 37 36 35 35 35 35 35 36 36 34 30 26 25 23 22 22 23 23 24 24 22 21 21 21 20 18 17 16 15 14
48 49 51 52 52 52 52 52 52 51 50 49 47 45 44 45 45 44 43 44 45 46 47 47 47 47 47 46 45 45 45 45 44 43 41 40 39 39 39 38 39 39 40 40 38 37 36 35 34 33 33 33 33 32 29 28 28 26 25 24 24 23 24 24 23 22 22 22 20 18 17 17 16 15
49 49 50 51 51 52 52 52 52 51 49 46 43 42 43 44 45 44 43 45 47 48 48 49 49 49 48 47 46 46 46 45 44 43 42 41 40 39 39 40 40 41 42 41 39 36 33 31 29 29 31 32 33 33 33 34 33 29 26 25 25 24 24 24 24 24 23 23 21 19 18 17 17 16
47 48 49 49 51 51 52 53 52 51 48 45 44 44 45 46 47 46 46 47 49 50 50 51 50 50 49 47 46 46 46 46 45 43 42 42 41 41 41 42 42 42 41 40 36 32 29 28 28 30 32 34 35 36 38 37 33 29 27 26 26 26 25 25 25 26 25 24 22 20 18 18 18 18
47 47 47 48 50 52 53 53 52 51 49 47 47 47 48 49 50 50 49 51 52 53 53 52 51 50 50 49 48 47 47 47 46 43 42 42 42 42 42 41 40 39 39 37 34 31 30 30 30 31 33 35 36 38 39 37 32 29 28 28 28 27 27 27 27 28 27 25 23 21 19 19 19 19
45 45 45 47 50 52 53 53 52 51 50 49 49 49 51 53 53 52 52 54 55 55 55 54 53 52 52 51 49 49 48 48 46 43 42 42 42 41 40 39 38 38 37 36 35 34 32 32 32 33 35 36 36 37 38 36 32 30 29 30 30 29 28 28 29 29 28 26 24 22 20 20 20 20
46 47 47 49 50 50 50 50 50 51 51 51 51 52 53 55 55 55 55 56 57 57 56 55 54 54 53 53 52 50 49 48 47 44 42 43 42 41 40 38 38 38 38 37 36 34 33 34 35 36 36 36 36 36 36 34 32 30 31 32 32 31 30 30 31 31 30 28 25 23 21 21 21 21
Wind_Direction
227 229 230 229 228 228 229 230 231 232 233 236 237 237 235 231 226 218 214 214 215 214 216 220 222 219 217 217 219 222 221 217 213 213 215 219 224 228 230 235 238 243 249 253 259 266 274 288 294 293 297 299 303 311 318 323 327 329 334 337 337 337 336 338 338 337 336 335 332 330 332 333 336 343
226 229 231 230 228 228 229 229 230 232 233 233 234 234 233 230 229 226 222 218 216 216 221 224 224 220 218 218 219 220 219 214 209 210 213 218 223 226 229 232 234 239 244 250 259 268 278 285 285 285 289 296 306 313 318 323 327 329 333 334 335 336 335 335 336 336 335 334 332 330 331 333 337 343
226 228 229 229 228 228 229 229 229 230 231 231 230 230 227 223 223 224 223 220 217 218 222 223 221 219 217 216 216 218 217 210 206 208 213 218 222 224 228 229 231 238 243 250 260 267 272 276 279 284 290 299 310 315 319 323 325 327 329 332 333 333 332 334 336 335 333 332 331 330 331 334 338 342
225 226 227 229 228 227 227 228 228 228 228 227 226 225 221 217 218 221 223 225 222 219 220 218 215 216 215 212 212 216 214 207 204 207 212 218 221 222 225 226 231 239 244 250 258 263 268 271 276 282 289 302 312 316 318 320 321 323 327 329 330 329 330 333 334 334 332 331 331 331 333 337 339 341
224 225 226 227 228 227 227 227 227 226 225 224 222 219 216 215 219 223 225 226 224 219 216 211 209 212 213 208 208 212 211 206 204 206 212 217 218 220 222 224 229 235 241 249 255 260 264 268 273 281 292 305 311 313 315 316 317 320 324 325 326 326 329 333 334 333 331 330 331 332 335 338 340 342
224 225 226 227 227 227 226 226 227 225 223 221 219 216 217 218 221 225 226 225 224 221 214 208 207 207 206 206 206 209 209 206 206 208 212 216 217 219 221 224 229 233 238 246 251 256 261 266 276 286 297 305 308 309 310 312 314 318 319 320 322 325 328 333 334 331 329 330 331 333 336 340 342 343
224 225 227 227 228 228 227 226 226 225 222 221 220 218 218 219 220 224 226 226 227 225 216 210 210 208 203 202 205 207 207 205 206 207 210 213 216 220 222 224 229 233 238 243 248 255 263 272 282 291 297 302 305 306 307 309 312 313 314 317 320 324 328 333 332 329 328 330 332 335 337 339 342 343
225 225 226 228 229 230 229 227 226 224 222 222 222 220 219 218 219 222 224 225 229 229 219 211 210 210 206 202 203 205 205 203 204 206 207 210 214 218 221 224 229 234 239 243 249 258 266 274 280 286 294 299 301 302 304 307 309 309 312 316 320 324 329 332 330 328 328 331 333 335 337 340 343 344
226 227 229 230 230 229 228 227 226 224 222 222 222 221 219 219 219 220 222 225 229 227 220 213 210 207 204 201 203 205 204 203 203 204 206 209 214 217 220 225 229 234 239 243 251 258 264 271 277 285 294 297 297 300 302 304 306 308 310 314 319 324 329 330 328 328 331 332 333 334 337 341 344 344
229 231 232 232 232 230 228 227 225 224 222 221 220 220 220 218 216 217 220 225 226 223 218 216 213 207 200 198 202 204 203 205 207 207 208 210 213 216 220 224 229 234 239 243 250 255 260 268 277 286 290 292 295 297 299 302 303 305 308 313 319 323 325 329 330 330 332 332 332 333 337 342 344 343
232 232 230 230 231 231 229 228 226 224 222 220 218 218 218 216 214 216 220 223 224 220 216 215 212 208 202 199 202 204 204 204 207 210 213 213 213 216 219 224 229 234 239 243 247 251 256 266 277 282 284 288 295 295 296 298 299 301 306 312 316 318 323 331 333 331 331 330 329 331 337 342 343 343
231 230 228 227 229 231 230 230 228 225 222 220 216 214 215 214 213 216 221 223 223 219 217 215 209 206 204 201 200 203 205 205 205 207 210 213 215 217 219 223 227 231 237 241 243 248 254 264 272 277 281 288 292 292 292 294 296 299 304 308 312 317 328 335 332 330 328 326 326 330 337 342 344 343
228 228 226 225 226 230 232 230 228 226 225 222 217 214 212 212 212 216 221 223 223 219 216 215 210 206 205 203 203 205 206 207 208 207 207 208 211 215 218 221 224 229 235 239 242 249 254 261 268 274 281 287 288 288 288 290 294 296 299 304 312 322 331 333 329 327 325 323 324 329 336 342 345 345
226 226 225 224 223 227 231 229 225 224 225 224 221 219 216 214 214 217 220 222 223 220 216 215 212 209 208 207 209 211 209 208 208 208 208 207 207 211 215 219 224 227 234 239 244 250 253 258 267 273 279 282 283 284 285 287 289 291 296 305 315 324 329 329 327 324 322 321 323 328 336 344 347 346
226 224 223 222 220 222 227 226 222 222 223 221 220 220 219 220 223 223 221 222 224 221 218 217 216 214 213 211 210 210 209 207 206 205 206 207 209 213 218 223 226 228 233 240 244 249 252 257 265 271 276 277 279 282 283 284 285 287 295 306 315 322 325 324 323 321 319 319 321 327 336 344 348 345
225 222 219 218 218 220 224 223 218 217 218 217 216 215 215 219 225 226 225 227 227 223 218 218 218 217 217 215 212 210 208 207 205 204 205 208 212 217 223 227 228 227 230 235 240 245 249 255 262 267 271 274 276 279 280 280 282 286 296 305 312 319 321 319 318 317 316 317 321 327 336 344 347 344
224 220 215 214 215 218 222 223 216 211 211 210 210 211 213 216 219 222 227 232 233 228 223 221 220 218 217 216 214 211 209 207 207 206 207 210 214 219 224 226 225 227 230 233 239 245 248 254 261 264 268 272 274 275 276 277 280 286 295 304 312 315 314 312 313 314 315 317 321 327 335 341 345 342
223 219 215 214 217 219 223 226 220 212 207 206 206 208 211 214 215 218 222 224 225 225 226 227 226 222 220 218 214 211 211 211 211 212 215 218 220 222 225 223 222 227 231 234 239 245 249 255 261 263 266 270 271 271 274 275 279 286 296 304 309 310 308 307 310 313 316 317 320 326 332 337 341 340
222 220 217 217 219 221 223 227 225 216 208 206 207 209 209 210 212 216 218 216 215 217 219 222 225 225 225 219 212 210 211 210 210 213 219 223 222 221 224 224 225 229 232 235 240 247 252 256 260 263 265 267 267 270 273 274 277 287 298 304 305 304 302 303 307 312 314 315 318 323 329 333 337 338
225 222 220 220 219 218 217 219 221 217 210 207 208 208 207 208 211 215 214 211 211 213 214 214 214 214 214 210 205 206 208 207 206 206 208 211 211 214 219 223 227 230 233 235 240 246 251 255 259 261 263 264 267 270 272 273 278 290 300 302 301 299 297 299 303 309 312 312 315 321 326 330 336 337
229 227 225 222 218 214 210 211 213 213 210 208 207 206 206 208 211 211 209 207 207 210 211 211 210 209 207 203 201 204 207 207 208 210 212 213 213 217 222 226 230 233 234 236 239 244 249 254 257 259 260 262 267 270 271 272 280 293 299 298 296 294 292 294 299 304 307 309 313 319 323 328 334 335
230 229 227 223 218 214 209 208 210 211 209 207 205 204 205 208 210 208 206 205 204 204 207 207 207 208 207 204 204 207 209 210 211 215 220 223 224 226 230 232 233 234 234 234 236 242 248 252 254 256 259 263 267 267 268 273 283 293 297 295 292 289 288 291 294 298 304 308 312 317 321 326 331 332
227 226 224 221 218 215 212 210 209 208 207 205 203 204 206 208 209 208 207 206 203 203 204 204 205 207 207 206 208 210 212 214 214 217 221 226 229 230 232 232 230 233 239 239 237 243 250 251 252 254 259 267 270 268 269 277 286 292 293 291 288 286 285 288 291 296 302 307 311 316 320 323 327 328
224 220 219 218 216 214 213 210 208 205 204 204 204 206 208 209 209 209 208 207 207 207 206 206 208 210 210 210 212 214 216 217 216 218 221 225 230 231 232 233 232 237 245 243 239 243 248 248 249 253 259 265 267 269 275 282 285 288 290 288 285 283 284 286 289 295 301 306 310 314 317 320 322 324
222 217 215 214 212 211 210 208 206 204 204 206 208 210 211 211 211 211 209 208 209 210 210 210 211 213 214 215 216 218 221 221 220 222 224 227 231 233 234 235 235 237 240 240 241 245 247 248 249 254 260 261 260 267 277 283 283 286 286 284 281 282 282 284 288 293 299 304 308 311 314 316 317 319
223 218 214 211 209 208 205 204 205 205 207 210 212 212 213 213 214 214 212 211 211 211 211 212 213 215 217 217 218 221 223 223 223 225 226 229 232 233 234 234 234 235 237 240 243 245 247 249 250 255 261 261 261 268 277 282 284 285 283 280 279 279 279 281 286 291 296 301 305 308 311 311 312 317
223 218 215 211 207 205 202 203 205 206 208 211 211 211 213 214 214 214 213 213 213 213 213 213 215 216 218 219 221 223 224 224 224 225 227 230 232 232 232 232 233 233 234 237 240 243 245 247 249 253 258 258 263 273 281 283 284 283 280 277 275 276 277 278 282 287 292 298 303 306 309 308 310 317
222 217 213 209 206 204 203 206 207 207 208 209 210 211 213 214 214 214 213 212 213 213 214 215 216 217 219 221 224 225 226 226 226 227 228 230 231 231 232 233 235 235 235 238 241 243 245 245 247 251 253 253 262 275 281 282 282 279 276 273 272 272 274 275 279 284 289 295 301 304 306 307 311 317
221 217 213 208 206 206 207 209 208 206 207 209 211 213 214 214 214 213 212 212 212 213 214 216 217 219 221 224 226 227 227 227 228 229 230 230 230 232 232 233 234 235 236 238 240 244 245 245 245 249 250 252 262 273 278 278 277 274 271 270 269 269 271 273 277 281 286 292 298 301 303 305 309 314
219 218 216 212 208 208 209 210 208 205 204 206 211 214 215 215 214 213 212 213 213 214 216 218 219 221 223 225 226 226 227 229 230 231 231 231 232 234 234 235 236 237 237 238 239 242 243 243 244 246 247 251 261 270 274 274 271 269 267 266 266 267 269 272 275 278 282 288 293 296 299 301 305 310
216 216 216 213 209 208 209 210 209 206 204 206 209 212 214 215 215 215 216 218 218 219 221 222 223 224 225 226 227 228 229 231 231 232 233 233 234 234 234 234 235 237 237 237 239 241 242 242 243 244 246 252 261 267 269 269 267 265 263 262 263 264 266 269 271 274 277 282 288 292 294 297 302 308
214 214 213 208 205 205 207 207 207 207 206 207 209 211 212 214 216 217 219 220 221 223 225 225 226 226 226 227 229 230 231 233 233 233 233 232 232 233 232 232 234 235 236 237 238 240 241 241 242 243 245 252 259 264 266 266 264 261 259 258 259 261 264 267 269 272 275 279 285 289 292 295 300 307
211 210 208 204 203 204 206 206 206 206 206 207 210 212 214 216 216 217 218 218 219 221 222 223 224 225 226 228 229 231 232 233 233 232 232 231 231 231 230 231 234 236 237 239 240 241 241 241 241 243 246 252 257 260 261 262 260 257 254 254 255 257 261 264 267 270 273 277 281 286 290 293 298 303
211 209 206 204 205 207 208 206 205 205 206 206 209 212 214 216 218 219 219 218 219 221 222 223 224 226 227 229 230 231 232 233 232 231 231 231 232 232 232 233 235 236 237 238 240 240 240 240 240 242 246 251 255 256 256 256 256 253 251 251 253 255 257 261 264 267 270 271 275 281 286 290 294 298
212 213 210 208 208 210 211 210 207 206 206 207 209 211 213 217 220 221 220 220 221 222 223 224 226 228 230 231 232 233 234 235 235 234 232 232 232 233 233 234 236 238 238 239 239 238 237 237 238 241 245 250 252 253 252 251 250 249 248 250 252 253 254 257 261 264 266 268 271 275 280 286 289 292
216 217 216 213 211 211 212 212 210 208 209 210 211 212 214 217 220 221 220 221 223 224 224 225 227 229 231 233 235 236 238 239 238 235 234 234 234 234 234 234 236 238 239 240 240 238 236 237 238 240 244 248 249 250 250 249 247 247 247 249 250 250 251 254 257 260 262 266 269 271 275 281 285 288
221 221 220 217 215 214 214 213 212 211 212 213 214 215 217 219 221 221 221 222 224 225 227 228 230 232 234 236 237 238 238 239 239 237 236 236 236 237 237 237 238 239 239 239 238 236 235 237 238 240 243 245 247 248 249 247 245 245 246 248 249 248 248 251 254 255 257 261 265 268 272 278 281 284
224 224 222 220 218 217 216 216 215 215 214 215 217 219 221 223 224 224 223 224 226 227 229 230 232 234 236 237 238 239 239 240 241 240 239 239 239 240 240 239 240 242 242 240 237 235 235 237 240 242 243 244 246 248 248 248 248 247 247 247 246 244 245 248 250 252 254 256 260 263 268 272 276 279
226 226 226 224 222 220 219 219 219 218 217 217 218 220 223 226 228 228 228 228 229 230 231 232 233 235 236 237 239 240 242 243 244 243 242 243 243 242 241 240 241 241 241 239 237 236 236 238 241 244 245 247 249 251 251 251 251 248 244 243 243 242 245 247 248 248 250 252 254 258 262 266 269 272
224 225 226 225 224 223 223 223 224 223 222 222 224 226 229 232 233 233 232 233 233 233 233 234 235 236 237 239 240 241 242 245 246 246 246 247 246 244 243 242 242 242 241 240 239 239 240 244 247 250 251 251 252 251 248 245 243 240 238 240 242 242 243 245 245 245 246 249 252 254 256 260 264 267
224 223 224 224 225 227 228 228 228 227 227 228 230 232 235 237 238 238 237 237 237 236 236 236 236 237 239 240 241 242 243 246 246 245 244 246 246 244 243 243 242 241 241 241 242 243 246 250 252 251 250 248 247 245 242 239 237 236 236 238 241 241 241 243 244 243 244 247 249 251 253 255 260 263
228 227 226 227 228 229 230 231 231 231 230 230 232 234 236 239 240 239 238 237 238 238 238 238 239 239 240 241 243 243 244 246 246 244 244 246 246 244 242 241 241 242 242 242 245 249 251 251 248 245 243 242 241 241 240 238 237 235 234 235 237 239 240 242 243 243 244 245 246 248 249 251 253 257
231 231 231 232 232 232 232 232 233 232 232 232 233 234 236 238 239 238 237 237 238 238 239 240 241 241 242 243 244 244 245 247 247 246 246 248 248 246 245 245 244 245 245 244 246 248 248 245 243 241 240 239 239 239 240 239 236 234 233 233 234 236 238 240 242 243 243 243 244 245 246 247 250 253
233 234 234 233 233 233 233 233 234 234 234 233 234 235 237 238 239 240 239 239 238 239 240 241 241 241 242 243 244 244 245 247 248 248 248 249 249 249 249 248 246 245 244 242 242 243 243 242 240 239 238 238 238 239 240 239 235 232 231 232 233 234 236 238 241 242 242 241 241 241 243 246 249 252
232 232 232 232 233 234 235 237 238 238 237 236 236 237 239 240 241 241 241 240 240 240 240 241 241 241 242 242 243 245 246 246 246 247 248 248 248 248 248 246 245 243 241 240 240 240 241 240 239 238 237 237 237 237 238 238 235 232 230 231 232 233 233 236 239 242 243 242 240 239 240 243 247 250